Location: Unspecified
(0.0000°N, 0.0000°E)
Time: 00:15:11
(UTC+00:00)

Vanguard 1 - Visible Passes

Search period start: 28 November 2014 00:00
Search period end: 08 December 2014 00:00
Orbit: 652 x 3835 km, 34.3° (Epoch: 27 November)

Date Brightness Start Highest point End Pass type
(mag) Time Alt. Az. Time Alt. Az. Time Alt. Az.
28 Nov 13.6 02:04:40 11° NNE 02:04:40 11° NNE 02:05:46 10° NNE visible
28 Nov 12.7 04:17:25 10° NNW 04:27:04 22° NNE 04:33:41 10° ENE visible
28 Nov 12.4 18:34:42 10° SW 18:48:30 84° SE 19:06:43 20° NE visible
28 Nov 13.1 20:58:26 10° W 21:16:03 45° NNW 21:19:29 43° NNW visible
28 Nov 14.2 23:32:10 10° WNW 23:32:15 10° WNW 23:32:15 10° WNW visible
29 Nov 13.4 02:24:59 15° NNE 02:24:59 15° NNE 02:29:39 10° NE visible
29 Nov 12.3 04:38:35 10° NNW 04:49:44 29° NNE 04:56:36 10° E visible
29 Nov 12.5 18:56:19 10° WSW 19:10:34 80° NW 19:27:08 24° NE visible
29 Nov 13.3 21:21:43 10° W 21:39:09 37° NNW 21:39:54 37° NNW visible
30 Nov 13.2 02:45:19 19° N 02:45:19 19° N 02:53:37 10° NE visible
30 Nov 11.9 05:00:06 10° NW 05:12:08 40° NNE 05:19:00 10° E visible
30 Nov 12.7 19:18:13 10° WSW 19:32:51 65° NW 19:47:33 28° NE visible
30 Nov 13.5 21:45:37 10° WNW 22:00:19 30° NNW 22:00:19 30° NNW visible
01 Dec 13.0 03:05:41 21° N 03:08:41 23° NNE 03:17:17 10° ENE visible
01 Dec 11.4 05:21:48 10° NW 05:34:15 56° NNE 05:40:59 10° ESE visible
01 Dec 12.9 19:40:29 10° WSW 19:55:25 52° NNW 20:07:57 30° NNE visible
01 Dec 13.7 22:10:07 10° WNW 22:20:43 23° NW 22:20:43 23° NW visible
02 Dec 12.7 03:26:04 23° N 03:31:44 29° NNE 03:40:28 10° ENE visible
02 Dec 13.1 20:03:10 10° W 20:18:17 42° NNW 20:28:20 30° NNE visible
02 Dec 13.9 22:35:07 10° WNW 22:41:06 17° NW 22:41:06 17° NW visible
03 Dec 13.6 01:33:41 14° NE 01:33:41 14° NE 01:36:07 10° NE visible
03 Dec 12.4 03:46:27 23° NNW 03:54:28 37° NNE 04:03:10 10° E visible
03 Dec 12.3 18:01:43 10° WSW 18:13:29 75° NW 18:34:36 10° NE visible
03 Dec 13.3 20:26:21 10° W 20:41:27 34° NNW 20:48:40 29° N visible
03 Dec 14.1 23:00:16 10° NW 23:01:26 11° NW 23:01:26 11° NW visible
04 Dec 13.3 01:54:06 20° NE 01:54:06 20° NE 02:00:04 10° ENE visible
04 Dec 12.0 04:06:52 22° NNW 04:16:54 49° NNE 04:25:26 10° ESE visible
04 Dec 12.6 18:23:36 10° WSW 18:35:44 59° NNW 18:56:14 11° NE visible
04 Dec 13.5 20:50:05 10° WNW 21:05:00 28° NNW 21:08:59 27° N visible
05 Dec 13.1 02:14:31 27° NNE 02:14:31 27° NNE 02:23:38 10° ENE visible
05 Dec 11.6 04:27:17 19° NW 04:39:03 66° NNE 04:47:19 10° ESE visible
05 Dec 12.8 18:45:51 10° W 18:58:17 47° NNW 19:16:31 14° NE visible
05 Dec 13.6 21:14:20 10° WNW 21:28:57 24° NNW 21:29:16 24° NNW visible
06 Dec 12.8 02:34:56 35° NNE 02:35:47 35° NNE 02:46:43 10° E visible
06 Dec 11.3 04:47:42 15° NW 05:00:54 89° NE 05:08:53 10° SE visible
06 Dec 13.1 19:08:30 10° W 19:21:08 37° NNW 19:36:46 16° NNE visible
06 Dec 13.8 21:38:57 10° NW 21:49:31 20° NNW 21:49:31 20° NNW visible
07 Dec 12.4 02:55:21 41° N 02:58:34 44° NNE 03:09:20 10° E visible
07 Dec 11.4 05:08:07 11° WNW 05:22:30 67° SW 05:30:10 10° SE visible
07 Dec 13.3 19:31:38 10° WNW 19:44:19 30° NNW 19:56:58 18° NNE visible
07 Dec 13.9 22:03:33 10° NW 22:09:44 16° NNW 22:09:44 16° NNW visible
